STARLINK-36190

Last updated on Fri Dec 19 2025 00:02:09 GMT+0000 (Coordinated Universal Time)

1 67029U 25293AC 25351.83335648 -.01202844 45756-3 -24808-2 0 9998 2 67029 69.9929 308.9822 0004145 267.2610 156.3872 15.99071595 2386
UTC large
Height (km)
Speed (km/s)
/
Latitude / Longitude
Inclination (degrees)
Orbital Period (minutes)
Azimuth
Elevation
Range (km)
Doppler Factor

Next 0 passes for location: London (51.5072 / 0.1276)

Sorry there are no passes over London.